North Bennington, VT

6:56 AM EST on February 13, 2016 (GMT -0500)
Morse State

Weather History for KDDH - February, 2011

Change the Weather History Date:

Thursday, February 24, 2011

  Actual Average Record
Temperature  
Mean Temperature 22 °F 27 °F  
Max Temperature 39 °F 37 °F 35 °F (2014)
Min Temperature 5 °F 17 °F -19 °F (2015)
Degree Days  
Heating Degree Days 43 38  
Month to date heating degree days 971  
Since 1 July heating degree days 5102  
Cooling Degree Days 0 0  
Month to date cooling degree days 0  
Year to date cooling degree days 0  
Moisture  
Dew Point 13 °F    
Average Humidity 51    
Maximum Humidity 70    
Minimum Humidity 25    
Precipitation  
Precipitation 0.00 in 0.10 in 0.00 in (2016)
Month to date precipitation 1.87  
Year to date precipitation 4.62  
Sea Level Pressure  
Sea Level Pressure 30.10 in    
Wind  
Wind Speed 3 mph (South)    
Max Wind Speed 13 mph    
Max Gust Speed 17 mph    
Visibility 10 miles    
Events      
T = Trace of Precipitation, MM = Missing Value Source: NWS Daily Summary

Daily Weather History Graph

Daily Weather History Graph

Search for Another Location

Airport or City:

Trip Planner

Search our weather history database for the weather conditions in past years. The results will help you decide how hot, cold, wet, or windy it might be!

Date:

Astronomy

Feb. 24, 2011 Rise Set
Actual Time 6:37 AM EST 5:35 PM EST
Civil Twilight 6:08 AM EST 6:04 PM EST
Nautical Twilight 5:35 AM EST 6:37 PM EST
Astronomical Twilight 5:03 AM EST 7:10 PM EST
Moon 12:38 AM EST (2/24) 9:56 AM EST (2/24)
Length of Visible Light 11h 55m
Length of Day
10h 58m
Waning Gibbous, 53% of the Moon is Illuminated
Feb 24
Waning Gibbous
Feb 24
Last Quarter
Mar 4
New
Mar 12
First Quarter
Mar 19
Full

Hourly Weather History & Observations

Time (EST) Temp. Windchill Dew Point Humidity Pressure Visibility Wind Dir Wind Speed Gust Speed Precip Events Conditions
12:54 AM 7.0 °F - -2.0 °F 67% 30.30 in 10.0 mi Calm Calm - N/A   Clear
1:54 AM 7.0 °F - -2.0 °F 67% 30.28 in 10.0 mi Calm Calm - N/A   Clear
4:54 AM 5.0 °F - -2.9 °F 70% 30.24 in 10.0 mi Calm Calm - N/A   Clear
7:54 AM 9.0 °F - -0.9 °F 64% 30.24 in 10.0 mi Calm Calm - N/A   Clear
8:54 AM 17.1 °F - 1.0 °F 50% 30.21 in 10.0 mi Calm Calm - N/A   Clear
9:54 AM 27.0 °F - 3.0 °F 36% 30.17 in 10.0 mi Calm Calm - N/A   Clear
10:54 AM 36.0 °F 30.3 °F 3.0 °F 25% 30.15 in 10.0 mi SW 6.9 mph - N/A   Clear
11:54 AM 37.9 °F 30.0 °F 10.9 °F 33% 30.12 in 10.0 mi South 12.7 mph - N/A   Overcast
12:54 PM 39.0 °F 31.4 °F 16.0 °F 39% 30.09 in 10.0 mi SSW 12.7 mph - N/A   Overcast
1:54 PM 37.9 °F 32.7 °F 17.1 °F 43% 30.06 in 10.0 mi South 6.9 mph 17.3 mph N/A   Overcast
2:54 PM 37.9 °F 30.0 °F 17.1 °F 43% 30.05 in 10.0 mi South 12.7 mph - N/A   Overcast
3:54 PM 37.9 °F 32.1 °F 18.0 °F 45% 30.02 in - South 8.1 mph - N/A   Unknown
4:54 PM 39.0 °F 34.0 °F 19.0 °F 45% 30.00 in 10.0 mi Variable 6.9 mph - N/A   Overcast
5:54 PM 39.0 °F 34.0 °F 19.0 °F 45% 30.04 in 10.0 mi SSW 6.9 mph - N/A   Overcast
6:54 PM 39.0 °F 36.8 °F 21.0 °F 49% 30.04 in 10.0 mi SSW 3.5 mph - N/A   Overcast
7:54 PM 37.9 °F 33.5 °F 21.9 °F 53% 30.02 in 10.0 mi South 5.8 mph - N/A   Overcast
8:54 PM 37.9 °F 35.5 °F 23.0 °F 55% 30.01 in 10.0 mi South 3.5 mph - N/A   Overcast
9:54 PM 37.9 °F 33.5 °F 24.1 °F 57% 29.99 in 10.0 mi South 5.8 mph - N/A   Overcast
10:54 PM 37.9 °F 34.4 °F 25.0 °F 60% 29.98 in 10.0 mi SW 4.6 mph - N/A   Overcast
11:54 PM 36.0 °F 33.3 °F 26.1 °F 67% 29.96 in 10.0 mi East 3.5 mph - N/A   Overcast